Date String (YYYY-MM-DD hh:mm:ss) UTC,Instrument flags,absolute air pressure of the measurement (hPa),sample flow rate (lpm),inlet stack bypass flow (lpm),air temperature of the measurement (°C),ambient temperature measured by the external sensor (°C),aerosol sample conditioner tube jacket temperature (°C),OPC LED temperature (°C),internal box temperature (°C),relative humidity of the measurement (%),span deviation,mass concentration of particles derived from Lorenz-Mie calculation of OPC scattering (μg/m³),mass concentration of particles derived from Lorenz-Mie calculation of OPC scattering (μg/m³),mass concentration of particles derived from Lorenz-Mie calculation of OPC scattering (μg/m³)
DateTimeUTC,F1_M11,P_M11,Q1_M11,Q2_M11,T1_M11,T2_M11,T3_M11,T4_M11,T5_M11,U1_M11,ZSPAN_M11,X2_M11,X0_M11,X1_M11
2024-02-26 13:00:00,SystemResetWarning,0820.1,4.99,000.00,020.7,019.9,000.0,028.9,022.3,16.1,0000.0,0001.17,0003.33,0000.60
2024-02-26 13:01:00,SystemResetWarning,0820.0,5.00,000.00,020.7,019.9,000.0,028.9,022.3,16.0,0000.0,0001.20,0003.45,0000.59
2024-02-26 13:02:00,SystemResetWarning,0819.9,4.99,000.00,020.7,019.9,000.0,028.9,022.3,15.9,0000.0,0001.20,0003.41,0000.58
2024-02-26 13:03:00,SystemResetWarning,0819.9,5.00,000.00,020.6,019.9,000.0,028.9,022.3,16.0,0000.0,0001.21,0003.45,0000.56
2024-02-26 13:04:00,SystemResetWarning,0820.1,5.00,000.00,020.6,019.9,000.0,028.9,022.2,16.1,0000.0,0001.18,0003.62,0000.55
2024-02-26 13:05:00,SystemResetWarning,0820.1,5.01,000.00,020.6,019.9,000.0,028.9,022.2,16.3,0000.0,0001.15,0003.43,0000.55
2024-02-26 13:06:00,SystemResetWarning,0820.1,5.00,000.00,020.6,019.9,000.0,028.9,022.3,16.2,0000.0,0001.16,0003.44,0000.55
2024-02-26 13:07:00,SystemResetWarning,0820.1,4.99,000.00,020.6,019.9,000.0,028.9,022.3,16.2,0000.0,0001.15,0003.57,0000.56
2024-02-26 13:08:00,SystemResetWarning,0820.0,4.99,000.00,020.6,019.9,000.0,028.9,022.3,16.2,0000.0,0001.13,0004.30,0000.56
2024-02-26 13:09:00,SystemResetWarning,0820.1,5.01,000.00,020.6,019.9,000.0,028.9,022.3,16.2,0000.0,0001.13,0004.28,0000.56
2024-02-26 13:10:00,SystemResetWarning,0820.0,5.01,000.00,020.6,019.9,000.0,028.9,022.2,16.1,0000.0,0001.11,0004.11,0000.56
2024-02-26 13:11:00,SystemResetWarning,0820.0,5.00,000.00,020.6,019.9,000.0,028.9,022.2,16.1,0000.0,0001.10,0003.92,0000.56
2024-02-26 13:12:00,SystemResetWarning,0820.0,5.00,000.00,020.6,019.9,000.0,028.9,022.2,16.0,0000.0,0001.07,0003.72,0000.56
2024-02-26 13:13:00,SystemResetWarning,0820.0,4.99,000.00,020.6,019.9,000.0,028.9,022.2,16.1,0000.0,0001.07,0003.91,0000.57
2024-02-26 13:14:00,SystemResetWarning,0820.1,5.00,000.00,020.6,019.9,000.0,028.9,022.3,16.1,0000.0,0001.06,0003.87,0000.58
2024-02-26 13:15:00,SystemResetWarning,0820.1,4.99,000.00,020.6,019.9,000.0,028.9,022.3,16.0,0000.0,0001.08,0003.62,0000.58
2024-02-26 13:16:00,SystemResetWarning,0820.1,5.00,000.00,020.6,019.9,000.0,028.9,022.3,16.0,0000.0,0001.08,0003.13,0000.58
2024-02-26 13:17:00,SystemResetWarning,0820.2,4.99,000.00,020.6,019.9,000.0,028.9,022.3,16.0,0000.0,0001.06,0003.11,0000.57
2024-02-26 13:18:00,SystemResetWarning,0820.2,5.00,000.00,020.7,019.9,000.0,028.9,022.3,16.0,0000.0,0001.11,0003.08,0000.57
2024-02-26 13:19:00,SystemResetWarning,0820.2,5.00,000.00,020.7,019.9,000.0,028.9,022.3,16.0,0000.0,0001.14,0002.50,0000.57
2024-02-26 13:20:00,SystemResetWarning,0820.2,5.00,000.00,020.7,020.0,000.0,028.9,022.3,16.0,0000.0,0001.13,0002.48,0000.57
2024-02-26 13:21:00,SystemResetWarning,0820.3,5.00,000.00,020.7,020.0,000.0,028.9,022.3,16.0,0000.0,0001.09,0002.40,0000.57
2024-02-26 13:22:00,SystemResetWarning,0820.2,5.00,000.00,020.7,020.0,000.0,028.9,022.3,15.9,0000.0,0001.07,0002.39,0000.58
2024-02-26 13:23:00,SystemResetWarning,0820.2,5.00,000.00,020.7,020.0,000.0,028.9,022.3,15.9,0000.0,0001.07,0002.43,0000.57
2024-02-26 13:24:00,SystemResetWarning,0820.3,5.00,000.00,020.7,020.0,000.0,028.9,022.3,15.8,0000.0,0001.09,0003.15,0000.57
2024-02-26 13:25:00,SystemResetWarning,0820.3,5.00,000.00,020.7,020.0,000.0,028.9,022.3,15.7,0000.0,0001.07,0003.46,0000.57
2024-02-26 13:26:00,SystemResetWarning,0820.3,5.00,000.00,020.7,020.0,000.0,028.9,022.4,15.7,0000.0,0001.08,0003.54,0000.57
2024-02-26 13:27:00,SystemResetWarning,0820.3,5.00,000.00,020.7,020.0,000.0,028.9,022.4,15.8,0000.0,0001.14,0003.76,0000.57
2024-02-26 13:28:00,SystemResetWarning,0820.4,5.00,000.00,020.7,020.0,000.0,028.9,022.4,15.8,0000.0,0001.14,0003.70,0000.57
2024-02-26 13:29:00,SystemResetWarning,0820.3,5.00,000.00,020.7,020.1,000.0,028.9,022.4,15.5,0000.0,0001.07,0003.48,0000.56
2024-02-26 13:30:00,SystemResetWarning,0820.2,5.00,000.00,020.7,020.1,000.0,028.9,022.4,15.6,0000.0,0001.04,0003.43,0000.56
2024-02-26 13:31:00,SystemResetWarning,0820.2,5.00,000.00,020.7,020.1,000.0,028.9,022.4,15.6,0000.0,0001.08,0003.86,0000.56
2024-02-26 13:32:00,SystemResetWarning,0820.2,5.00,000.00,020.8,020.1,000.0,028.9,022.4,15.7,0000.0,0001.09,0004.81,0000.55
2024-02-26 13:33:00,SystemResetWarning,0820.2,5.00,000.00,020.8,020.1,000.0,028.9,022.4,16.1,0000.0,0001.05,0004.76,0000.53
2024-02-26 13:34:00,SystemResetWarning,0820.2,5.00,000.00,020.8,020.1,000.0,028.9,022.4,16.4,0000.0,0001.06,0004.77,0000.54
2024-02-26 13:35:00,SystemResetWarning,0820.2,5.00,000.00,020.8,020.1,000.0,028.9,022.4,16.9,0000.0,0001.06,0003.94,0000.53
2024-02-26 13:36:00,SystemResetWarning,0820.1,5.00,000.00,020.8,020.1,000.0,028.9,022.4,17.1,0000.0,0001.08,0003.66,0000.53
2024-02-26 13:37:00,SystemResetWarning,0820.0,5.00,000.00,020.8,020.1,000.0,028.9,022.4,17.4,0000.0,0001.11,0003.75,0000.53
2024-02-26 13:38:00,SystemResetWarning,0820.0,5.00,000.00,020.8,020.1,000.0,028.9,022.4,17.5,0000.0,0001.06,0003.87,0000.53
2024-02-26 13:39:00,SystemResetWarning,0819.9,5.02,000.00,020.8,020.1,000.0,028.9,022.4,17.4,0000.0,0001.11,0004.39,0000.52
2024-02-26 13:40:00,SystemResetWarning,0820.0,5.01,000.00,020.7,020.0,000.0,028.9,022.4,17.5,0000.0,0001.17,0004.65,0000.53
2024-02-26 13:41:00,SystemResetWarning,0820.0,4.99,000.00,020.7,020.0,000.0,028.9,022.4,17.6,0000.0,0001.19,0004.84,0000.54
2024-02-26 13:42:00,SystemResetWarning,0820.2,4.99,000.00,020.7,020.0,000.0,028.9,022.3,17.8,0000.0,0001.14,0004.38,0000.54
2024-02-26 13:43:00,SystemResetWarning,0820.1,5.00,000.00,020.7,020.0,000.0,028.9,022.4,17.6,0000.0,0001.15,0003.56,0000.55
2024-02-26 13:44:00,SystemResetWarning,0820.0,5.00,000.00,020.7,020.0,000.0,028.9,022.3,17.5,0000.0,0001.16,0003.77,0000.55
2024-02-26 13:45:00,SystemResetWarning,0820.1,5.00,000.00,020.7,020.0,000.0,028.9,022.4,17.9,0000.0,0001.16,0004.71,0000.54
2024-02-26 13:46:00,SystemResetWarning,0820.1,5.00,000.00,020.7,020.0,000.0,028.9,022.3,18.1,0000.0,0001.11,0006.46,0000.53
2024-02-26 13:47:00,SystemResetWarning,0820.0,5.00,000.00,020.7,020.0,000.0,028.9,022.3,18.6,0000.0,0001.11,0006.90,0000.53
2024-02-26 13:48:00,SystemResetWarning,0820.0,5.00,000.00,020.7,020.0,000.0,028.9,022.4,19.4,0000.0,0001.11,0006.90,0000.53
2024-02-26 13:49:00,SystemResetWarning,0820.0,5.00,000.00,020.7,019.9,000.0,028.9,022.3,20.1,0000.0,0001.08,0006.50,0000.54
2024-02-26 13:50:00,SystemResetWarning,0820.0,5.00,000.00,020.7,019.9,000.0,028.9,022.3,20.3,0000.0,0001.04,0006.14,0000.54
2024-02-26 13:51:00,SystemResetWarning,0820.1,5.00,000.00,020.7,019.9,000.0,028.9,022.3,20.1,0000.0,0001.02,0006.02,0000.54
2024-02-26 13:52:00,SystemResetWarning,0820.1,5.00,000.00,020.7,019.9,000.0,028.9,022.3,19.7,0000.0,0001.04,0005.98,0000.53
2024-02-26 13:53:00,SystemResetWarning,0820.0,5.00,000.00,020.7,019.9,000.0,028.9,022.3,20.4,0000.0,0001.06,0006.21,0000.53
2024-02-26 13:54:00,SystemResetWarning,0820.0,5.00,000.00,020.6,019.9,000.0,028.9,022.3,20.9,0000.0,0001.04,0006.14,0000.53
2024-02-26 13:55:00,SystemResetWarning,0820.0,5.00,000.00,020.6,019.9,000.0,028.9,022.3,20.8,0000.0,0001.03,0005.91,0000.53
2024-02-26 13:56:00,SystemResetWarning,0820.1,5.00,000.00,020.6,019.9,000.0,028.9,022.3,20.9,0000.0,0001.03,0005.50,0000.54
2024-02-26 13:57:00,SystemResetWarning,0820.0,5.01,000.00,020.6,019.9,000.0,028.9,022.3,20.9,0000.0,0001.06,0004.33,0000.54
2024-02-26 13:58:00,SystemResetWarning,0820.1,5.01,000.00,020.6,019.9,000.0,028.9,022.3,20.5,0000.0,0001.05,0004.22,0000.54
2024-02-26 13:59:00,SystemResetWarning,0820.1,4.99,000.00,020.6,019.9,000.0,028.9,022.3,20.4,0000.0,0001.03,0003.98,0000.54
